Weather History for Mineral Point, WI

Change the Weather History Date:

Tuesday, October 30, 2012

  Actual Average (KLNR) Record (KLNR)
Temperature  
Mean Temperature 40 °F -  
Max Temperature 48 °F 51 °F 69 °F (2007)
Min Temperature 33 °F 34 °F 27 °F (2008)
Degree Days  
Heating Degree Days 24    
Moisture  
Dew Point 22 °F    
Average Humidity 53    
Maximum Humidity 75    
Minimum Humidity 25    
Precipitation  
Precipitation 0.00 in - - ()
Sea Level Pressure  
Sea Level Pressure 29.99 in    
Wind  
Wind Speed 12 mph (NNW)    
Max Wind Speed 24 mph    
Max Gust Speed 32 mph    
Visibility 10 miles    
Events      
Averages and records for this station are not official NWS values.
T = Trace of Precipitation, MM = Missing Value Source: NWS Daily Summary

Daily Weather History Graph

Daily Weather History Graph

Search for Another Location

Airport:

Trip Planner

Search our weather history database for the weather conditions in past years. The results will help you decide how hot, cold, wet, or windy it might be!

Date:

Astronomy

Oct. 30, 2012 Rise Set
Actual Time 7:33 AM CDT 5:55 PM CDT
Civil Twilight 7:03 AM CDT 6:24 PM CDT
Nautical Twilight 6:30 AM CDT 6:57 PM CDT
Astronomical Twilight 5:57 AM CDT 7:30 PM CDT
Moon 6:22 PM CDT (10/30) 8:21 AM CDT (10/30)
Length of Visible Light 11h 20m
Length of Day
10h 21m
Full, 99% of the Moon is Illuminated
Oct 30
Full
Nov 6
Last Quarter
Nov 13
New
Nov 20
First Quarter
Nov 28
Full

Hourly Weather History & Observations

Time (CDT) Temp. Windchill Dew Point Humidity Pressure Visibility Wind Dir Wind Speed Gust Speed Precip Events Conditions
12:15 AM 35.6 °F 29.9 °F 21.2 °F 56% 30.16 in 10.0 mi North 6.9 mph - N/A   Clear
12:35 AM 35.6 °F 29.9 °F 21.2 °F 56% 30.15 in 10.0 mi North 6.9 mph - N/A   Clear
12:55 AM 35.6 °F 29.9 °F 21.2 °F 56% 30.15 in 10.0 mi North 6.9 mph - N/A   Clear
1:35 AM 35.6 °F 30.7 °F 21.2 °F 56% 30.14 in 10.0 mi North 5.8 mph - N/A   Clear
1:55 AM 33.8 °F 27.0 °F 23.0 °F 65% 30.14 in 10.0 mi North 8.1 mph - N/A   Clear
2:15 AM 33.8 °F 28.6 °F 23.0 °F 65% 30.13 in 10.0 mi NNW 5.8 mph - N/A   Clear
2:35 AM 33.8 °F 27.7 °F 23.0 °F 65% 30.13 in 10.0 mi NNW 6.9 mph - N/A   Clear
2:55 AM 33.8 °F 26.4 °F 23.0 °F 65% 30.12 in 10.0 mi NNW 9.2 mph - N/A   Clear
3:15 AM 33.8 °F 27.0 °F 24.8 °F 70% 30.11 in 10.0 mi NNW 8.1 mph - N/A   Clear
3:35 AM 33.8 °F 26.4 °F 24.8 °F 70% 30.11 in 10.0 mi NNW 9.2 mph - N/A   Clear
3:55 AM 33.8 °F 26.4 °F 24.8 °F 70% 30.10 in 10.0 mi NNW 9.2 mph - N/A   Clear
4:15 AM 33.8 °F 25.8 °F 24.8 °F 70% 30.10 in 10.0 mi North 10.4 mph - N/A   Clear
4:35 AM 33.8 °F 26.4 °F 24.8 °F 70% 30.10 in 10.0 mi North 9.2 mph - N/A   Clear
4:55 AM 33.8 °F 27.0 °F 24.8 °F 70% 30.09 in 10.0 mi North 8.1 mph - N/A   Clear
5:15 AM 33.8 °F 26.4 °F 26.6 °F 75% 30.09 in 10.0 mi North 9.2 mph - N/A   Clear
5:35 AM 33.8 °F 26.4 °F 26.6 °F 75% 30.09 in 10.0 mi NNW 9.2 mph - N/A   Clear
5:55 AM 33.8 °F 26.4 °F 26.6 °F 75% 30.08 in 10.0 mi NNW 9.2 mph - N/A   Clear
6:15 AM 33.8 °F 25.3 °F 26.6 °F 75% 30.08 in 10.0 mi NNW 11.5 mph 16.1 mph N/A   Clear
6:35 AM 33.8 °F 25.8 °F 26.6 °F 75% 30.07 in 10.0 mi NNW 10.4 mph - N/A   Clear
6:55 AM 33.8 °F 25.8 °F 26.6 °F 75% 30.06 in 10.0 mi NNW 10.4 mph - N/A   Clear
7:35 AM 33.8 °F 25.8 °F 26.6 °F 75% 30.06 in 10.0 mi NNW 10.4 mph - N/A   Clear
7:55 AM 33.8 °F 25.3 °F 26.6 °F 75% 30.05 in 10.0 mi NNW 11.5 mph - N/A   Clear
8:15 AM 33.8 °F 25.8 °F 26.6 °F 75% 30.05 in 10.0 mi NNW 10.4 mph - N/A   Clear
8:35 AM 35.6 °F 28.0 °F 26.6 °F 70% 30.04 in 10.0 mi NNW 10.4 mph - N/A   Clear
8:55 AM 35.6 °F 27.5 °F 26.6 °F 70% 30.03 in 10.0 mi NNW 11.5 mph - N/A   Clear
9:15 AM 35.6 °F 27.1 °F 26.6 °F 70% 30.03 in 10.0 mi NNW 12.7 mph - N/A   Clear
9:35 AM 37.4 °F 28.5 °F 24.8 °F 60% 30.03 in 10.0 mi NNW 15.0 mph 21.9 mph N/A   Clear
9:55 AM 37.4 °F 28.2 °F 24.8 °F 60% 30.03 in 10.0 mi NNW 16.1 mph 24.2 mph N/A   Clear
10:15 AM 39.2 °F 30.5 °F 23.0 °F 52% 30.02 in 10.0 mi NNW 16.1 mph 24.2 mph N/A   Clear
10:35 AM 41.0 °F 32.5 °F 23.0 °F 49% 30.01 in 10.0 mi North 17.3 mph 24.2 mph N/A   Clear
10:55 AM 41.0 °F 31.4 °F 23.0 °F 49% 30.00 in 10.0 mi NNW 21.9 mph 28.8 mph N/A   Clear
11:15 AM 42.8 °F 34.5 °F 23.0 °F 46% 30.00 in 10.0 mi NNW 18.4 mph 25.3 mph N/A   Clear
11:35 AM 41.0 °F 31.9 °F 21.2 °F 45% 29.98 in 10.0 mi NNW 19.6 mph 25.3 mph N/A   Clear
11:55 AM 42.8 °F 34.3 °F 21.2 °F 42% 29.98 in 10.0 mi NNW 19.6 mph 27.6 mph N/A   Clear
12:15 PM 42.8 °F 33.5 °F 21.2 °F 42% 29.97 in 10.0 mi NNW 23.0 mph 26.5 mph N/A   Clear
12:35 PM 42.8 °F 33.5 °F 19.4 °F 39% 29.96 in 10.0 mi North 23.0 mph 29.9 mph N/A   Clear
12:55 PM 44.6 °F 36.6 °F 19.4 °F 37% 29.95 in 10.0 mi NNW 19.6 mph 29.9 mph N/A   Clear
1:15 PM 44.6 °F 36.6 °F 19.4 °F 37% 29.94 in 10.0 mi NNW 19.6 mph 27.6 mph N/A   Clear
1:35 PM 46.4 °F 38.5 °F 17.6 °F 32% 29.93 in 10.0 mi NNW 21.9 mph 32.2 mph N/A   Clear
1:55 PM 46.4 °F 39.5 °F 17.6 °F 32% 29.92 in 10.0 mi NNW 17.3 mph 27.6 mph N/A   Clear
2:15 PM 46.4 °F 38.3 °F 17.6 °F 32% 29.92 in 10.0 mi NNW 23.0 mph 31.1 mph N/A   Clear
2:35 PM 46.4 °F 38.1 °F 17.6 °F 32% 29.91 in 10.0 mi North 24.2 mph 29.9 mph N/A   Clear
2:55 PM 46.4 °F 39.2 °F 17.6 °F 32% 29.91 in 10.0 mi NNW 18.4 mph 28.8 mph N/A   Clear
3:15 PM 46.4 °F 38.7 °F 17.6 °F 32% 29.91 in 10.0 mi NNW 20.7 mph 27.6 mph N/A   Clear
3:35 PM 48.2 °F - 14.0 °F 25% 29.90 in 10.0 mi North 19.6 mph 25.3 mph N/A   Clear
3:55 PM 48.2 °F - 17.6 °F 30% 29.89 in 10.0 mi NNW 20.7 mph 26.5 mph N/A   Clear
4:15 PM 46.4 °F 38.7 °F 15.8 °F 29% 29.90 in 10.0 mi NNW 20.7 mph 25.3 mph N/A   Clear
4:35 PM 46.4 °F 39.2 °F 17.6 °F 32% 29.90 in 10.0 mi NNW 18.4 mph 25.3 mph N/A   Clear
4:55 PM 46.4 °F 39.8 °F 17.6 °F 32% 29.90 in 10.0 mi North 16.1 mph 23.0 mph N/A   Clear
5:15 PM 46.4 °F 39.5 °F 17.6 °F 32% 29.90 in 10.0 mi NNW 17.3 mph 25.3 mph N/A   Clear
5:35 PM 44.6 °F 38.4 °F 17.6 °F 34% 29.91 in 10.0 mi NNW 12.7 mph - N/A   Clear
5:55 PM 44.6 °F 38.8 °F 21.2 °F 39% 29.91 in 10.0 mi NW 11.5 mph 17.3 mph N/A   Clear
6:15 PM 42.8 °F 36.6 °F 21.2 °F 42% 29.91 in 10.0 mi NNW 11.5 mph 17.3 mph N/A   Clear
6:35 PM 42.8 °F 36.2 °F 21.2 °F 42% 29.92 in 10.0 mi NNW 12.7 mph 19.6 mph N/A   Clear
6:55 PM 42.8 °F 35.1 °F 19.4 °F 39% 29.92 in 10.0 mi NNW 16.1 mph - N/A   Clear
7:15 PM 41.0 °F 33.5 °F 21.2 °F 45% 29.92 in 10.0 mi NNW 13.8 mph 19.6 mph N/A   Clear
7:55 PM 41.0 °F 33.1 °F 21.2 °F 45% 29.92 in 10.0 mi NNW 15.0 mph 23.0 mph N/A   Clear
8:15 PM 41.0 °F 33.9 °F 21.2 °F 45% 29.91 in 10.0 mi NNW 12.7 mph - N/A   Clear
8:35 PM 39.2 °F 30.8 °F 21.2 °F 49% 29.91 in 10.0 mi NNW 15.0 mph 19.6 mph N/A   Clear
8:55 PM 39.2 °F 30.8 °F 21.2 °F 49% 29.91 in 10.0 mi NNW 15.0 mph 20.7 mph N/A   Clear
9:15 PM 39.2 °F 31.2 °F 21.2 °F 49% 29.91 in 10.0 mi NNW 13.8 mph 20.7 mph N/A   Clear
9:35 PM 37.4 °F 28.9 °F 21.2 °F 52% 29.91 in 10.0 mi NNW 13.8 mph 23.0 mph N/A   Clear
9:55 PM 37.4 °F 28.9 °F 21.2 °F 52% 29.91 in 10.0 mi North 13.8 mph 20.7 mph N/A   Clear
10:35 PM 37.4 °F 28.2 °F 23.0 °F 56% 29.91 in 10.0 mi North 16.1 mph 19.6 mph N/A   Clear
10:55 PM 35.6 °F 25.9 °F 23.0 °F 60% 29.90 in 10.0 mi NNW 16.1 mph 21.9 mph N/A   Clear
11:15 PM 35.6 °F 27.5 °F 23.0 °F 60% 29.89 in 10.0 mi NNW 11.5 mph 18.4 mph N/A   Clear
11:35 PM 35.6 °F 27.1 °F 23.0 °F 60% 29.89 in 10.0 mi North 12.7 mph 19.6 mph N/A   Clear
11:55 PM 33.8 °F 25.3 °F 23.0 °F 65% 29.90 in 10.0 mi North 11.5 mph 17.3 mph N/A   Clear